Temperature
12 12 13 13 13 13 13 13 13 13 13 13 13 13 13 13 13 13 13 13 13 13 13 13 13 13 13 14 14 14 14 14 14 14 14 14 14 14 15 15 15 15 15
12 12 12 13 13 13 13 13 13 14 14 14 14 14 13 13 13 13 13 13 13 13 12 13 13 13 13 13 14 14 14 14 14 14 14 14 14 14 14 14 15 15 15
12 12 12 12 13 13 13 13 13 13 13 13 13 13 13 13 13 13 13 13 13 12 12 13 13 13 13 13 14 14 14 14 13 13 13 13 13 14 14 14 14 14 14
11 12 12 12 12 12 12 12 13 13 13 13 13 13 13 13 13 13 13 13 13 13 13 13 13 13 13 13 14 14 14 14 13 13 13 13 13 13 14 14 14 14 14
11 11 11 11 11 11 12 12 12 12 12 12 12 12 12 13 13 13 13 13 13 13 13 13 13 13 13 13 13 14 14 14 13 13 13 13 13 13 13 13 13 13 13
11 11 11 11 11 11 11 11 11 11 11 11 12 12 12 12 12 12 13 13 13 13 13 13 13 13 13 13 13 13 14 14 13 13 13 13 13 13 13 13 13 13 13
11 11 11 11 11 11 10 11 11 11 11 11 11 11 12 12 12 12 12 12 12 13 13 13 13 13 13 13 13 13 13 13 13 13 13 13 13 13 13 13 12 12 12
11 11 11 11 10 10 10 10 10 10 10 11 11 11 11 11 11 12 12 12 12 12 12 12 12 12 13 13 13 13 13 13 13 13 13 13 13 13 13 13 12 12 12
12 11 11 11 10 10 10 10 10 10 10 10 10 11 11 11 11 11 11 11 11 12 12 12 12 12 12 12 13 13 13 13 13 13 13 13 13 13 13 13 12 12 12
12 11 11 11 10 10 10 10 10 10 10 10 10 10 10 10 10 10 10 11 11 11 11 11 12 12 12 12 12 12 13 13 13 13 13 13 13 13 13 13 13 13 13
12 11 11 11 10 10 10 10 10 9 9 9 9 9 9 9 9 10 10 10 10 10 10 11 11 11 12 12 12 12 13 13 13 13 13 13 13 13 13 13 13 13 13
12 12 11 11 10 10 10 10 10 9 9 9 9 9 9 9 9 9 9 9 9 9 10 10 10 11 11 11 12 12 12 12 13 13 13 12 12 12 12 12 12 12 12
12 12 11 11 10 10 10 10 10 9 9 9 9 9 9 9 9 9 9 9 9 9 9 9 10 10 11 11 11 12 12 12 12 12 12 12 12 12 12 12 11 11 11
12 12 11 11 10 10 10 10 9 9 9 9 8 9 9 9 9 9 9 9 9 9 9 9 9 10 10 10 11 11 11 12 12 12 12 12 12 11 11 11 11 11 11
12 12 11 11 10 10 10 9 9 9 8 8 8 8 9 9 9 9 9 9 9 9 9 9 9 9 10 10 11 11 11 11 12 12 12 11 11 11 11 11 10 10 10
12 12 11 11 11 10 10 10 9 9 8 8 8 8 8 8 8 9 9 9 9 9 9 9 9 9 9 10 10 11 11 11 11 11 11 11 11 11 10 10 10 10 9
12 12 11 11 11 10 10 10 9 9 8 8 8 8 8 8 9 9 9 9 9 9 9 9 9 9 10 10 10 10 11 11 11 11 10 10 10 10 10 10 9 9 9
12 12 11 11 11 11 10 10 10 9 9 8 8 8 8 8 9 9 9 9 9 9 9 9 9 9 10 10 10 10 10 10 10 10 10 10 10 10 9 9 9 9 8
13 12 12 11 11 11 10 10 10 10 9 9 8 8 8 8 9 9 9 9 9 9 9 9 9 9 9 9 9 10 10 10 9 9 9 9 9 9 9 8 8 8 8
13 12 12 12 11 11 11 10 10 10 9 9 9 8 8 8 9 9 9 9 9 9 9 9 9 9 9 9 9 9 9 9 9 9 9 8 8 8 8 8 8 8 8
13 13 12 12 12 11 11 11 10 10 10 9 9 9 9 9 9 9 10 10 10 9 9 9 9 9 9 9 9 9 8 8 8 8 8 7 7 7 8 8 8 8 7
13 13 13 12 12 12 11 11 11 10 10 10 10 9 9 9 9 9 10 10 10 10 10 9 9 9 9 9 9 8 8 8 7 7 7 7 7 7 7 8 8 7 7
13 13 13 13 12 12 12 11 11 11 11 10 10 10 9 9 9 9 10 10 10 10 10 10 10 10 10 9 9 9 8 8 8 7 7 7 7 7 8 8 7 7 7
13 13 13 13 13 13 12 12 12 11 11 11 11 10 10 9 9 9 10 10 10 10 10 10 10 10 10 10 10 10 9 9 8 8 8 7 7 7 8 7 7 7 6
13 13 14 13 13 13 13 12 12 12 12 11 11 11 10 10 10 10 10 10 10 11 11 10 10 10 10 11 10 10 10 9 9 8 8 8 8 7 7 7 7 6 6
13 13 14 14 13 13 13 13 13 12 12 12 11 11 11 11 10 10 10 10 10 11 11 11 11 10 10 11 11 11 10 10 9 9 9 8 8 8 7 7 7 6 6
Wind_Speed
9 8 8 8 8 8 7 7 6 5 5 5 4 4 4 3 3 3 3 2 2 3 4 4 3 3 3 3 3 3 3 4 4 2 2 2 2 3 3 1 4 6 7
9 9 9 9 9 9 9 9 7 7 7 6 5 5 4 3 2 2 2 3 3 3 3 3 1 1 2 3 3 4 3 4 4 3 1 2 2 2 2 1 0 2 4
10 10 10 11 11 11 10 10 9 9 9 9 8 7 6 4 2 1 1 2 1 1 2 1 0 1 2 2 3 3 3 3 3 2 1 1 1 1 1 1 1 1 1
9 10 10 10 10 9 9 9 9 9 9 9 9 8 7 6 5 3 0 1 1 2 2 2 3 4 4 4 4 4 4 4 3 2 1 1 1 1 1 1 1 2 2
8 9 9 8 8 8 9 9 9 10 10 9 9 10 9 8 8 6 3 1 0 1 1 2 3 5 6 5 4 4 4 3 3 2 1 1 1 1 1 0 1 1 3
8 8 8 8 8 8 8 8 9 10 9 10 11 10 11 10 14 14 8 5 4 3 2 1 1 2 5 6 7 7 6 5 4 3 2 1 0 1 0 1 1 2 2
7 7 7 7 7 7 7 7 8 8 8 9 10 10 10 12 17 16 14 7 7 6 4 3 2 2 3 3 5 7 5 5 5 5 4 2 1 0 1 2 3 3 3
6 6 7 7 7 7 7 7 6 6 6 7 8 9 9 13 17 16 13 8 7 7 6 4 3 3 3 3 4 4 4 3 4 4 4 3 2 2 2 3 4 5 5
5 6 6 6 7 7 7 6 5 5 6 6 6 8 9 10 15 15 12 6 6 7 6 6 4 3 3 5 5 5 5 4 4 7 7 7 7 6 5 4 4 4 4
3 3 5 6 7 7 6 5 5 5 5 6 7 7 8 8 14 14 11 4 5 5 5 6 7 6 6 6 5 5 5 3 4 6 7 8 8 10 10 5 4 4 3
1 3 5 6 6 6 6 5 5 6 6 7 7 6 7 9 11 14 11 5 4 4 4 4 5 7 7 6 5 4 5 5 5 6 6 6 6 6 7 8 7 5 5
4 5 5 6 5 5 6 6 6 6 7 7 7 7 7 8 10 12 13 9 5 2 3 3 3 5 5 5 4 5 8 7 5 6 6 6 6 6 7 9 13 14 11
5 5 5 6 6 5 6 6 6 6 6 6 6 7 7 7 9 14 13 11 9 3 2 3 3 6 6 5 6 7 6 5 5 6 6 5 4 4 5 5 8 12 15
5 4 4 5 5 5 5 5 5 5 5 6 6 7 7 7 7 8 8 7 7 5 4 6 8 9 7 6 6 6 5 4 5 6 5 4 3 4 4 4 4 4 6
4 4 4 3 3 3 3 3 3 2 2 2 3 4 5 7 9 12 9 7 6 5 4 4 5 4 5 5 5 5 5 5 5 4 5 5 5 5 4 4 3 4 5
3 3 2 2 2 1 1 2 2 1 3 4 5 4 4 7 11 13 13 14 14 11 7 5 6 6 6 5 5 5 5 5 5 5 6 5 5 6 6 5 5 6 6
3 3 3 2 2 1 0 2 3 4 4 6 8 8 8 10 13 13 11 12 15 12 8 7 6 6 6 5 5 5 5 4 4 6 6 6 6 6 6 5 5 5 4
3 4 4 3 2 2 1 1 1 2 3 4 5 7 9 10 12 13 12 8 8 8 6 6 6 6 6 5 5 5 5 5 6 6 6 5 5 5 5 5 4 4 3
3 2 3 2 2 2 2 1 0 1 1 2 3 4 6 7 9 12 10 6 5 6 6 6 5 5 5 5 5 5 6 5 5 5 5 5 5 5 5 4 4 4 3
2 4 4 3 2 2 2 2 1 1 1 2 2 2 3 4 4 5 5 5 4 4 4 5 5 5 5 5 5 5 5 5 5 5 5 4 4 4 5 4 4 3 3
2 2 4 3 3 4 3 3 3 3 3 3 3 2 1 1 1 2 2 3 3 3 3 3 4 4 4 4 4 5 5 4 4 4 4 4 4 4 4 4 4 4 3
1 2 3 4 4 4 4 4 4 4 4 4 3 2 2 2 2 1 0 0 0 0 1 2 3 3 3 3 3 3 4 4 3 3 4 4 4 4 4 3 3 3 3
1 2 3 4 4 5 5 4 4 4 5 5 4 3 3 3 3 3 3 3 2 1 1 2 2 2 3 3 3 2 3 3 2 2 4 4 4 4 3 3 4 3 3
2 3 3 3 4 4 5 5 5 5 5 5 5 5 5 4 4 4 4 4 3 3 3 3 3 2 3 2 2 2 2 2 2 3 5 5 5 4 4 3 3 3 4
3 3 4 4 4 5 5 5 6 6 6 6 5 5 5 5 5 5 5 4 5 4 5 5 4 3 4 3 3 2 2 2 3 4 6 6 5 5 4 4 3 3 3
4 4 4 4 4 5 5 6 6 6 6 6 6 6 6 6 6 6 6 6 5 5 6 7 7 6 5 4 4 3 3 3 4 6 7 7 5 5 5 4 5 4 5
Wind_Direction
10 12 21 20 21 26 29 23 20 22 24 30 39 45 49 49 49 60 61 65 103 119 121 124 126 145 162 165 163 163 164 158 193 249 266 292 302 315 340 298 245 232 236
15 22 27 25 27 31 30 26 27 32 32 32 35 41 37 37 56 85 85 79 84 91 93 93 75 108 140 157 162 168 169 172 175 217 278 304 302 320 326 339 336 224 226
20 28 30 29 32 34 33 32 33 34 34 34 36 34 25 18 24 39 132 128 125 129 131 127 136 163 198 172 155 155 155 158 159 179 243 302 319 339 7 21 37 29 244
22 28 30 28 30 32 32 33 33 36 37 33 31 25 19 19 21 13 330 178 188 207 205 193 193 198 197 176 160 155 141 134 136 147 196 300 311 324 38 51 40 38 36
22 25 21 20 25 30 32 32 34 37 37 30 32 27 21 23 24 25 28 55 145 184 191 187 183 191 188 171 156 150 140 129 125 124 120 56 8 13 31 42 99 80 57
22 18 14 20 25 27 29 32 36 33 29 32 31 28 29 28 30 37 40 40 40 48 62 92 150 168 177 166 156 153 150 145 145 137 131 122 67 356 12 61 108 106 87
20 16 15 20 26 24 32 39 36 29 29 32 28 26 24 21 29 32 38 41 39 34 32 40 79 68 87 113 129 131 136 141 143 142 137 146 144 151 119 81 76 81 79
20 20 17 21 25 25 37 39 34 30 32 30 29 25 23 22 26 28 30 30 35 32 28 33 63 66 65 94 102 105 99 98 114 111 120 127 132 128 121 116 111 96 78
17 22 19 22 26 30 34 31 28 38 38 33 27 25 22 11 18 24 28 15 23 22 19 27 47 61 78 117 122 124 109 90 98 105 101 93 88 93 110 108 102 95 77
9 32 35 36 37 34 32 33 34 44 38 30 28 20 16 7 10 18 23 17 15 9 11 18 29 41 60 108 128 134 128 118 114 97 77 69 66 64 65 77 115 115 111
76 73 56 46 49 44 43 40 40 39 36 28 21 11 10 8 6 14 18 15 4 360 6 8 7 26 49 74 105 126 138 131 115 106 94 79 67 61 57 58 63 91 104
105 85 67 51 47 47 50 43 37 35 35 24 16 10 4 360 0 7 15 19 18 6 353 350 354 25 58 78 85 105 116 113 107 103 97 88 82 79 75 72 72 70 69
107 94 82 69 54 47 50 45 37 33 33 24 18 10 359 354 358 6 10 15 19 25 360 8 53 60 63 61 78 91 95 101 107 106 106 97 88 94 90 81 73 74 63
118 111 99 85 66 51 48 47 47 35 29 24 18 6 354 352 358 1 0 3 9 26 34 56 72 71 66 62 65 67 75 97 111 111 108 94 78 80 75 74 78 69 65
124 124 113 100 90 63 49 42 43 22 13 17 356 347 353 355 353 9 20 15 16 31 53 59 59 62 66 65 63 65 69 82 92 92 103 101 92 84 63 47 63 69 83
138 145 144 135 116 84 30 360 338 319 2 27 24 21 351 1 9 22 27 30 33 42 58 58 59 62 67 72 78 77 73 81 87 95 94 95 96 93 84 69 73 86 93
164 166 163 165 173 193 330 355 349 348 13 32 28 33 37 28 27 25 27 35 36 41 55 52 54 57 62 66 71 79 78 70 77 89 93 94 97 95 94 89 87 88 86
161 171 172 187 200 214 237 276 335 359 355 345 359 23 38 40 34 29 26 40 39 39 45 48 50 52 59 66 71 78 79 76 78 84 87 89 93 97 95 91 90 96 92
172 182 183 187 195 202 203 194 179 4 357 342 347 0 18 29 33 31 35 47 48 40 37 40 41 46 53 60 67 72 78 79 81 84 85 87 91 96 96 92 90 86 80
208 212 187 183 193 193 193 192 201 240 290 316 328 328 351 29 27 15 25 36 47 43 37 39 37 42 47 55 63 71 77 78 80 80 83 85 86 92 102 101 97 90 76
230 231 200 185 204 208 208 211 211 217 240 261 271 272 225 102 62 31 29 34 46 51 46 46 43 41 43 50 63 75 83 83 86 93 96 95 98 94 94 96 97 98 102
240 231 212 210 214 214 214 213 210 219 233 244 257 276 182 152 165 170 172 94 76 83 84 87 74 58 49 51 65 91 98 99 102 110 113 113 111 112 111 107 106 104 107
286 262 241 227 218 222 219 216 217 223 231 233 232 229 215 206 202 203 205 202 197 196 172 142 122 99 78 72 75 101 126 131 130 140 141 136 132 132 130 129 131 124 122
289 278 258 244 226 218 220 225 225 228 231 231 226 222 218 213 207 204 199 195 195 201 200 192 185 178 160 140 129 133 144 160 163 159 158 149 144 139 134 129 129 128 128
273 276 266 254 242 232 228 228 229 231 232 230 226 222 217 209 205 200 191 188 193 204 209 205 200 196 195 195 203 215 220 218 196 171 158 148 144 144 142 140 139 134 134
252 263 262 257 251 241 233 232 233 230 231 231 226 221 214 208 206 199 190 187 192 201 211 214 215 212 209 211 224 244 259 238 199 180 167 154 146 148 144 141 143 141 142
Height
1512 1510 1509 1507 1506 1505 1504 1503 1502 1501 1500 1499 1498 1497 1497 1496 1496 1495 1495 1495 1496 1497 1498 1501 1505 1508 1513 1516 1519 1522 1524 1526 1527 1528 1529 1530 1530 1531 1532 1533 1535 1537 1539
1516 1514 1512 1511 1510 1508 1507 1506 1505 1504 1503 1502 1501 1500 1499 1499 1498 1497 1497 1497 1497 1497 1498 1501 1504 1507 1511 1514 1517 1519 1521 1523 1524 1525 1526 1527 1527 1528 1529 1530 1532 1534 1535
1521 1518 1516 1514 1512 1511 1509 1508 1507 1506 1505 1504 1503 1502 1501 1501 1500 1499 1499 1499 1499 1499 1500 1502 1504 1507 1510 1513 1515 1517 1519 1521 1522 1523 1523 1524 1524 1525 1526 1528 1529 1530 1532
1526 1523 1520 1518 1516 1514 1512 1511 1509 1508 1506 1505 1504 1503 1503 1502 1501 1501 1501 1501 1501 1502 1502 1504 1505 1507 1510 1513 1515 1516 1518 1519 1520 1521 1521 1522 1523 1523 1524 1525 1526 1528 1529
1530 1526 1524 1522 1520 1518 1516 1514 1512 1510 1508 1507 1506 1505 1504 1503 1502 1502 1501 1502 1502 1502 1503 1504 1506 1508 1510 1512 1514 1516 1517 1518 1519 1520 1520 1521 1521 1522 1522 1523 1524 1525 1526
1533 1530 1528 1525 1523 1521 1519 1517 1515 1513 1512 1510 1508 1507 1506 1504 1504 1503 1502 1502 1502 1502 1503 1504 1506 1508 1510 1512 1514 1516 1517 1518 1519 1520 1520 1521 1521 1521 1521 1522 1522 1523 1524
1536 1533 1531 1528 1525 1523 1522 1520 1518 1517 1515 1513 1511 1510 1508 1507 1505 1504 1503 1503 1502 1503 1503 1504 1505 1507 1510 1512 1514 1516 1518 1519 1520 1521 1521 1521 1521 1521 1521 1521 1522 1523 1523
1539 1536 1533 1530 1528 1526 1524 1523 1521 1520 1518 1516 1514 1512 1510 1508 1507 1506 1504 1504 1503 1503 1504 1504 1506 1507 1509 1511 1514 1516 1517 1519 1520 1521 1521 1522 1522 1522 1522 1522 1522 1523 1524
1541 1538 1536 1533 1530 1529 1527 1526 1524 1522 1520 1518 1516 1514 1512 1510 1508 1506 1505 1504 1504 1503 1504 1504 1506 1507 1509 1511 1513 1515 1518 1519 1521 1522 1522 1522 1523 1523 1523 1523 1524 1524 1525
1543 1540 1538 1535 1533 1531 1530 1528 1526 1525 1522 1520 1518 1515 1513 1510 1508 1507 1505 1504 1503 1503 1503 1504 1505 1507 1508 1510 1513 1515 1518 1519 1521 1522 1523 1523 1524 1524 1524 1525 1525 1526 1526
1544 1542 1540 1538 1535 1533 1532 1530 1528 1526 1524 1522 1519 1517 1514 1512 1509 1507 1506 1504 1503 1503 1503 1504 1505 1506 1508 1510 1512 1515 1517 1520 1521 1523 1524 1524 1525 1525 1526 1526 1527 1527 1528
1545 1543 1542 1540 1538 1536 1534 1532 1530 1528 1526 1524 1522 1519 1516 1514 1511 1509 1507 1505 1503 1503 1503 1503 1504 1506 1508 1510 1512 1515 1517 1520 1522 1523 1524 1525 1526 1527 1527 1528 1529 1529 1530
1546 1545 1543 1541 1540 1538 1537 1535 1532 1530 1528 1526 1523 1521 1518 1516 1513 1511 1508 1506 1504 1503 1503 1503 1504 1506 1508 1510 1512 1515 1518 1520 1522 1524 1525 1526 1528 1528 1529 1530 1531 1531 1531
1547 1546 1544 1543 1542 1540 1539 1537 1535 1533 1530 1528 1526 1523 1521 1518 1515 1513 1510 1508 1506 1505 1504 1504 1505 1506 1508 1510 1513 1516 1518 1521 1523 1525 1526 1528 1529 1530 1531 1532 1532 1533 1533
1548 1547 1546 1545 1543 1542 1541 1539 1537 1535 1533 1531 1529 1526 1523 1520 1518 1516 1513 1511 1509 1508 1507 1507 1507 1508 1510 1512 1515 1517 1520 1522 1524 1526 1528 1529 1531 1532 1532 1533 1533 1534 1533
1549 1548 1547 1546 1545 1544 1542 1541 1539 1537 1535 1533 1531 1529 1527 1524 1522 1520 1517 1515 1513 1511 1511 1510 1511 1512 1513 1515 1517 1519 1522 1524 1526 1528 1530 1531 1532 1533 1533 1534 1534 1534 1534
1549 1548 1548 1547 1546 1545 1544 1542 1541 1539 1537 1535 1533 1531 1529 1527 1525 1523 1520 1519 1517 1516 1515 1515 1515 1516 1517 1519 1520 1523 1524 1526 1528 1530 1531 1533 1533 1534 1534 1534 1534 1534 1534
1550 1549 1548 1548 1547 1546 1545 1544 1542 1540 1539 1537 1535 1533 1531 1529 1527 1525 1524 1523 1522 1521 1520 1520 1520 1520 1521 1523 1524 1526 1527 1529 1530 1532 1533 1534 1534 1534 1534 1534 1534 1533 1533
1550 1550 1549 1548 1548 1547 1546 1545 1544 1542 1540 1539 1537 1535 1533 1531 1529 1528 1527 1526 1525 1525 1524 1524 1525 1525 1526 1527 1528 1529 1530 1531 1532 1533 1534 1534 1534 1534 1534 1533 1533 1533 1533
1550 1550 1549 1549 1548 1548 1547 1546 1545 1543 1542 1540 1539 1537 1535 1533 1531 1530 1529 1528 1528 1528 1528 1528 1528 1528 1529 1529 1530 1531 1532 1532 1533 1533 1534 1534 1534 1533 1533 1533 1533 1533 1533
1549 1549 1549 1548 1548 1547 1547 1546 1545 1544 1543 1542 1540 1538 1537 1535 1533 1531 1530 1529 1529 1529 1529 1529 1529 1529 1530 1530 1531 1531 1532 1532 1532 1533 1533 1533 1533 1533 1533 1533 1533 1533 1533
1547 1547 1547 1547 1547 1546 1546 1545 1545 1544 1543 1542 1541 1539 1538 1536 1535 1533 1532 1531 1530 1530 1529 1529 1529 1529 1529 1529 1529 1530 1530 1531 1531 1531 1531 1532 1532 1532 1532 1533 1533 1533 1534
1545 1545 1545 1545 1545 1545 1545 1544 1544 1543 1543 1542 1541 1540 1538 1537 1535 1534 1533 1532 1531 1530 1530 1530 1529 1529 1528 1528 1528 1528 1528 1529 1529 1530 1530 1531 1531 1532 1532 1533 1533 1534 1534
1542 1542 1542 1542 1543 1543 1543 1543 1542 1542 1541 1541 1540 1539 1538 1537 1535 1534 1533 1532 1531 1531 1530 1530 1529 1529 1528 1527 1527 1527 1527 1527 1528 1529 1529 1530 1531 1531 1532 1532 1533 1533 1534
1538 1538 1538 1539 1539 1540 1540 1540 1540 1540 1540 1539 1539 1538 1537 1536 1535 1533 1532 1532 1531 1531 1530 1530 1529 1528 1528 1527 1526 1526 1526 1527 1527 1528 1529 1529 1530 1531 1531 1532 1532 1533 1534
1534 1534 1534 1535 1535 1536 1536 1537 1537 1537 1537 1537 1536 1536 1535 1534 1533 1532 1531 1531 1530 1530 1529 1529 1529 1528 1528 1527 1526 1526 1526 1526 1527 1528 1528 1529 1529 1530 1530 1531 1531 1532 1533